Regional Weather Roundup
Issued by NWS

Home | Current Version | Previous Version | Text Only | Print | Product List | Glossary Off
Versions: 1 2 3 4 5 6 7 8 9 10 11 12 13 14 15 16 17 18 19 20 21 22 23 24 25 26 27 28 29 30 31 32 33 34 35 36 37 38 39 40 41 42 43 44 45 46 47 48 49 50

412
ASUS43 KFSD 160710
RWRSD

WEATHER ROUNDUP FOR SOUTH DAKOTA
NATIONAL WEATHER SERVICE SIOUX FALLS SD
100 AM CST SAT DEC 16 2017

NOTE: "FAIR" INDICATES FEW OR NO CLOUDS BELOW 12,000 FEET WITH NO
SIGNIFICANT WEATHER AND/OR OBSTRUCTIONS TO VISIBILITY.


SDZ001>005-009-010-012>017-160800-
NORTHWEST AND NORTH CENTRAL SOUTH DAKOTA

CITY           SKY/WX    TMP DP  RH WIND       PRES   REMARKS
BUFFALO          N/A     36  21  54 NW14      29.64R
FAITH            N/A     36  21  54 NW10      29.66R
MOBRIDGE       PTCLDY    37  24  59 NW10      29.62R
$$

SDZ012>016-024>037-041>051-057-063-072>074-160800-
SOUTHWEST AND SOUTH CENTRAL SOUTH DAKOTA

CITY           SKY/WX    TMP DP  RH WIND       PRES   REMARKS
RAPID CTY ARPT CLOUDY    38  15  39 N12       29.70R
PIERRE         CLOUDY    36  24  62 SW8       29.65R
CUSTER         CLOUDY    32  14  47 W5        29.73F WCI  27
ELLSWORTH AFB  PTCLDY    44  15  30 N6        29.70R
PHILIP         CLOUDY    37  24  59 W12       29.69R
PINE RIDGE     CLOUDY    40  21  46 W5        29.72S
SPEARFISH      FAIR      41  18  38 W7        29.73R
WINNER         FAIR      41  24  51 W8        29.67R
$$

SDZ004>011-016>023-039-040-160800-
NORTHEAST SOUTH DAKOTA

CITY           SKY/WX    TMP DP  RH WIND       PRES   REMARKS
ABERDEEN       CLOUDY    33  26  75 NW6       29.60S WCI  28
WATERTOWN      CLOUDY    34  28  79 W8        29.57S WCI  27
BROOKINGS      CLOUDY    35  27  72 SW3       29.60S
SISSETON         N/A     33  30  88 CALM      29.57R
$$

SDZ017-020-022-023-036>040-048>070-160800-
SOUTHEAST SOUTH DAKOTA

CITY           SKY/WX    TMP DP  RH WIND       PRES   REMARKS
SIOUX FALLS    CLOUDY    35  28  75 CALM      29.62S
HURON          PTCLDY    32  27  81 W5        29.62R WCI  27
CHAMBERLAIN    PTCLDY    39  27  60 W9        29.66S
MITCHELL       PTCLDY    39  28  64 W9        29.64S
YANKTON        CLOUDY    41  25  53 W12       29.64F
$$

ABBREVIATIONS USED IN REMARKS
   TC - TEMPERATURE IN CELSIUS
  WCI - WIND CHILL INDEX
   HX - HEAT INDEX
  VSB - VISIBILITY





USA.gov is the U.S. government's official web portal to all federal, state and local government web resources and services.